Location: Unspecified
(0.0000°N, 0.0000°E)
Time: 16:16:22
(UTC+00:00)

SRMSAT - Visible Passes

Search period start: 28 May 2023 00:00
Search period end: 07 June 2023 00:00
Orbit: 848 x 865 km, 20.0° (Epoch: 27 May)

Date Brightness Start Highest point End Pass type
(mag) Time Alt. Az. Time Alt. Az. Time Alt. Az.
28 May ? 04:30:36 31° SW 04:33:02 48° SSE 04:38:49 10° E visible
28 May ? 19:04:53 10° W 19:10:14 35° SSW 19:13:18 21° SSE visible
29 May ? 04:18:14 43° SSW 04:19:48 55° SSE 04:25:41 10° E visible
29 May ? 18:51:51 10° W 18:57:02 31° SSW 19:00:56 16° SE visible
30 May ? 04:05:51 58° SSW 04:06:34 63° SSE 04:12:30 10° ENE visible
30 May ? 18:38:51 10° WSW 18:43:50 28° SSW 18:48:34 11° SE visible
31 May ? 03:53:28 72° SE 03:53:28 72° SE 03:59:19 10° ENE visible
31 May ? 18:25:53 10° WSW 18:30:39 25° SSW 18:35:24 10° SE visible
31 May ? 20:18:07 10° SSW 20:18:10 10° SSW 20:18:10 10° SSW visible
01 Jun ? 03:41:03 63° E 03:41:03 63° E 03:46:06 10° ENE visible
01 Jun ? 05:23:50 10° W 05:29:19 37° NNW 05:34:48 10° NE visible
01 Jun ? 18:12:57 10° WSW 18:17:27 22° SSW 18:21:59 10° SSE visible
01 Jun ? 20:05:26 10° SSW 20:05:47 10° SSW 20:05:47 10° SSW visible
02 Jun ? 03:28:38 48° ENE 03:28:38 48° ENE 03:32:51 10° ENE visible
02 Jun ? 05:10:47 10° W 05:16:06 33° NNW 05:21:25 10° NE visible
02 Jun ? 19:52:48 10° SSW 19:53:24 11° SSW 19:53:24 11° SSW visible
03 Jun ? 03:16:11 35° ENE 03:16:11 35° ENE 03:19:35 10° ENE visible
03 Jun ? 04:58:09 12° WNW 05:02:53 29° NNW 05:08:01 10° NE visible
03 Jun ? 19:40:15 10° SSW 19:41:02 10° S 19:41:02 10° S visible
04 Jun ? 03:03:43 26° NE 03:03:43 26° NE 03:06:17 10° ENE visible
04 Jun ? 04:45:41 14° WNW 04:49:42 26° NNW 04:54:36 10° NE visible
05 Jun ? 02:51:14 20° NE 02:51:14 20° NE 02:52:59 10° ENE visible
05 Jun ? 04:33:12 15° WNW 04:36:29 23° NNW 04:41:10 10° NE visible
06 Jun ? 02:38:43 15° NE 02:38:43 15° NE 02:39:39 10° NE visible
06 Jun ? 04:20:41 16° NW 04:23:19 21° NNW 04:27:44 10° NNE visible
